N4QD-13 Weather Reports


Display with metric or nautical units.
time (UTC)temp
F
wind
direction
speed
MPH
gust
MPH
rain 1hr
in
rain 24hr
in
rain mn
in
humidity
%
barometer
mb
20260510015917 59 27 0.0 0.0 0.00 0.00 0.00 83 1011.8
20260510015413 59 3 0.0 0.0 0.00 0.00 0.00 82 1011.7
20260510014908 59 350 1.0 1.0 0.00 0.00 0.00 81 1011.8
20260510014406 59 358 0.0 0.0 0.00 0.00 0.00 81 1011.7
20260510013902 60 7 0.0 0.0 0.00 0.00 0.00 80 1011.5
20260510013357 60 355 0.0 1.0 0.00 0.00 0.00 79 1011.2
20260510012852 60 17 0.0 0.0 0.00 0.00 0.00 79 1011.3
20260510012347 60 350 0.0 1.0 0.00 0.00 0.00 79 1011.0
20260510011842 60 23 0.0 0.0 0.00 0.00 0.00 79 1011.0
20260510011338 60 66 1.0 1.0 0.00 0.00 0.00 79 1010.8
20260510010834 61 9 0.0 0.0 0.00 0.00 0.00 77 1010.9
20260510010332 61 33 0.0 0.0 0.00 0.00 0.00 76 1010.9
20260510005828 62 37 0.0 0.0 0.00 0.00 0.00 75 1010.6
20260510005325 62 0 0.0 0.0 0.00 0.00 0.00 74 1010.3
20260510004823 63 9 0.0 1.0 0.00 0.00 0.00 72 1010.4
20260510004320 64 34 0.0 0.0 0.00 0.00 0.00 71 1010.1
20260510003818 65 58 1.0 1.0 0.00 0.00 0.00 69 1009.9
20260510003314 65 1 1.0 1.0 0.00 0.00 0.00 68 1010.2
20260510002813 66 25 0.0 0.0 0.00 0.00 0.00 66 1009.9
20260510002310 67 11 0.0 0.0 0.00 0.00 0.00 64 1009.9
20260510001806 68 59 1.0 1.0 0.00 0.00 0.00 62 1009.9
20260510001305 69 47 0.0 0.0 0.00 0.00 0.00 60 1009.7
20260510000800 69 54 1.0 1.0 0.00 0.00 0.00 59 1009.4
20260510000258 69 349 1.0 1.0 0.00 0.00 0.00 57 1009.6
20260509235755 70 23 0.0 0.0 0.00 0.00 0.00 59 1009.8
20260509235252 70 19 0.0 0.0 0.00 0.00 0.00 58 1009.6
20260509234747 71 43 0.0 0.0 0.00 0.00 0.00 58 1009.6
20260509234244 71 28 0.0 0.0 0.00 0.00 0.00 57 1009.7
20260509233743 71 31 0.0 0.0 0.00 0.00 0.00 57 1009.7
20260509233240 71 357 0.0 1.0 0.00 0.00 0.00 56 1009.7
20260509232736 71 352 0.0 1.0 0.00 0.00 0.00 57 1009.4
20260509232233 71 358 1.0 1.0 0.00 0.00 0.00 57 1009.7
20260509231729 71 18 1.0 1.0 0.00 0.00 0.00 57 1009.7
20260509231227 71 55 2.0 3.0 0.00 0.00 0.00 56 1009.6
20260509230724 71 24 1.0 2.0 0.00 0.00 0.00 56 1009.5
20260509230221 71 6 2.0 2.0 0.00 0.00 0.00 55 1009.4
20260509225716 71 11 4.0 6.0 0.00 0.00 0.00 55 1009.4
20260509225212 72 40 0.0 1.0 0.00 0.00 0.00 55 1009.5
20260509224708 72 34 0.0 1.0 0.00 0.00 0.00 55 1009.5
20260509224205 72 64 1.0 1.0 0.00 0.00 0.00 55 1009.5
20260509223702 72 36 1.0 2.0 0.00 0.00 0.00 54 1009.6
20260509223159 73 41 2.0 2.0 0.00 0.00 0.00 53 1009.4
20260509222656 73 3 1.0 2.0 0.00 0.00 0.00 53 1009.6
20260509222152 73 356 1.0 2.0 0.00 0.00 0.00 53 1009.5
20260509221648 73 51 6.0 9.0 0.00 0.00 0.00 51 1009.5
20260509221143 73 359 4.0 7.0 0.00 0.00 0.00 52 1009.5
20260509220640 73 130 1.0 2.0 0.00 0.00 0.00 52 1009.5
20260509220136 73 330 3.0 6.0 0.00 0.00 0.00 51 1009.4
20260509215632 73 67 5.0 6.0 0.00 0.00 0.00 51 1009.4
20260509215129 73 23 3.0 4.0 0.00 0.00 0.00 51 1009.4
20260509214626 73 51 3.0 3.0 0.00 0.00 0.00 51 1009.5
20260509214122 73 359 1.0 2.0 0.00 0.00 0.00 52 1009.5
20260509213619 73 4 3.0 4.0 0.00 0.00 0.00 51 1009.4
20260509213115 73 66 2.0 3.0 0.00 0.00 0.00 50 1009.0
20260509212613 73 45 2.0 3.0 0.00 0.00 0.00 52 1009.2
20260509212110 73 340 1.0 2.0 0.00 0.00 0.00 51 1009.1
20260509211606 73 39 4.0 7.0 0.00 0.00 0.00 50 1009.0
20260509211103 73 71 2.0 3.0 0.00 0.00 0.00 50 1009.1
20260509210559 73 358 4.0 4.0 0.00 0.00 0.00 49 1009.4
20260509210056 73 63 2.0 2.0 0.00 0.00 0.00 50 1009.2
20260509205556 73 271 2.0 4.0 0.00 0.00 0.00 48 1009.0
20260509205051 73 343 2.0 3.0 0.00 0.00 0.00 49 1009.2
20260509204548 74 348 2.0 2.0 0.00 0.00 0.00 47 1009.0
20260509204044 74 343 2.0 2.0 0.00 0.00 0.00 48 1009.0
20260509203540 73 340 3.0 3.0 0.00 0.00 0.00 49 1009.1
20260509203039 73 319 3.0 3.0 0.00 0.00 0.00 48 1008.9
20260509202539 74 321 3.0 4.0 0.00 0.00 0.00 50 1008.9
20260509202034 75 342 3.0 4.0 0.00 0.00 0.00 53 1008.9
20260509201530 75 34 2.0 4.0 0.00 0.00 0.00 52 1008.8
20260509201028 75 325 3.0 4.0 0.00 0.00 0.00 47 1008.9
20260509200527 75 341 9.0 11.0 0.00 0.00 0.00 46 1009.2
20260509200024 75 285 4.0 8.0 0.00 0.00 0.00 49 1009.2
20260509195520 73 56 4.0 6.0 0.00 0.00 0.00 49 1008.9
20260509195019 75 42 2.0 3.0 0.00 0.00 0.00 49 1009.2
20260509194515 75 54 2.0 3.0 0.00 0.00 0.00 48 1009.2
20260509194013 75 346 6.0 8.0 0.00 0.00 0.00 48 1009.4
20260509193512 75 312 4.0 4.0 0.00 0.00 0.00 50 1009.5
20260509193010 75 76 5.0 8.0 0.00 0.00 0.00 47 1009.4
20260509192506 75 74 5.0 6.0 0.00 0.00 0.00 48 1009.6
20260509192001 75 338 3.0 6.0 0.00 0.00 0.00 48 1009.6
20260509191456 75 307 3.0 4.0 0.00 0.00 0.00 48 1009.7
20260509190952 74 69 4.0 6.0 0.00 0.00 0.00 48 1009.5
20260509190449 74 284 6.0 7.0 0.00 0.00 0.00 49 1009.4
20260509185947 73 324 3.0 4.0 0.00 0.00 0.00 50 1009.6
20260509185444 71 309 4.0 6.0 0.00 0.00 0.00 50 1009.7
20260509184941 71 331 4.0 6.0 0.00 0.00 0.00 51 1009.8
20260509184439 71 308 3.0 6.0 0.00 0.00 0.00 54 1009.9
20260509183935 72 15 3.0 3.0 0.00 0.00 0.00 54 1010.1
20260509183435 72 34 1.0 1.0 0.00 0.00 0.00 52 1010.2
20260509182932 73 17 3.0 4.0 0.00 0.00 0.00 55 1010.2
20260509182428 73 357 6.0 7.0 0.00 0.00 0.00 57 1010.2
20260509181925 72 41 2.0 2.0 0.00 0.00 0.00 59 1010.2
20260509181423 73 14 1.0 2.0 0.00 0.00 0.00 59 1010.3
20260509180920 71 339 2.0 2.0 0.00 0.00 0.00 59 1010.4
20260509180415 71 0 2.0 3.0 0.00 0.00 0.00 56 1010.3
20260509175913 71 352 4.0 4.0 0.00 0.00 0.00 55 1010.6
20260509175409 70 274 3.0 6.0 0.00 0.00 0.00 55 1010.8
20260509174905 70 66 2.0 2.0 0.00 0.00 0.00 56 1010.8
20260509174402 69 314 3.0 7.0 0.00 0.00 0.00 56 1010.7
20260509173858 69 16 4.0 6.0 0.00 0.00 0.00 57 1010.9
20260509173357 69 31 4.0 7.0 0.00 0.00 0.00 57 1011.2
20260509172854 69 324 3.0 6.0 0.00 0.00 0.00 58 1011.2
20260509172351 69 56 2.0 2.0 0.00 0.00 0.00 57 1011.0
20260509171847 69 37 3.0 4.0 0.00 0.00 0.00 56 1011.1
20260509171343 69 67 3.0 3.0 0.00 0.00 0.00 56 1011.2
20260509170840 69 24 2.0 3.0 0.00 0.00 0.00 57 1011.1
20260509170335 69 262 2.0 4.0 0.00 0.00 0.00 55 1011.2
20260509165830 70 341 5.0 7.0 0.00 0.00 0.00 59 1011.3
20260509165325 69 17 1.0 1.0 0.00 0.00 0.00 59 1011.2
20260509164821 69 29 2.0 2.0 0.00 0.00 0.00 59 1011.1
20260509164317 69 17 2.0 3.0 0.00 0.00 0.00 60 1011.1
20260509163814 70 38 2.0 3.0 0.00 0.00 0.00 58 1011.2
20260509163311 69 34 3.0 4.0 0.00 0.00 0.00 57 1011.1
20260509162810 69 54 3.0 3.0 0.00 0.00 0.00 56 1011.1
20260509162308 70 318 3.0 3.0 0.00 0.00 0.00 57 1011.1
20260509161805 69 310 3.0 4.0 0.00 0.00 0.00 58 1011.0
20260509161301 69 13 0.0 1.0 0.00 0.00 0.00 59 1011.2
20260509160756 68 49 2.0 2.0 0.00 0.00 0.00 61 1011.1
20260509160253 69 340 4.0 6.0 0.00 0.00 0.00 62 1011.5
20260509155748 68 121 2.0 3.0 0.00 0.00 0.00 63 1011.2
20260509155245 68 320 5.0 8.0 0.00 0.00 0.00 62 1011.2
20260509154741 68 81 1.0 1.0 0.00 0.00 0.00 63 1011.3
20260509154238 68 8 2.0 3.0 0.00 0.00 0.00 62 1011.4
20260509153735 68 12 4.0 4.0 0.00 0.00 0.00 62 1011.2
20260509153231 67 116 3.0 4.0 0.00 0.00 0.00 65 1011.2
20260509152728 68 51 4.0 4.0 0.00 0.00 0.00 64 1011.3
20260509152224 68 54 4.0 6.0 0.00 0.00 0.00 63 1011.0
20260509151721 67 328 3.0 4.0 0.00 0.00 0.00 64 1011.0
20260509151218 66 310 3.0 4.0 0.00 0.00 0.00 65 1011.0
20260509150716 66 86 3.0 4.0 0.00 0.00 0.00 65 1011.2
20260509150214 66 327 2.0 3.0 0.00 0.00 0.00 66 1011.3
20260509145710 66 337 3.0 4.0 0.00 0.00 0.00 66 1011.1
20260509145206 68 66 6.0 7.0 0.00 0.00 0.00 63 1011.3
20260509144702 68 67 2.0 3.0 0.00 0.00 0.00 65 1011.2
20260509144159 67 27 5.0 8.0 0.00 0.00 0.00 66 1011.4
20260509143657 66 342 4.0 7.0 0.00 0.00 0.00 67 1011.3
20260509143154 66 14 4.0 4.0 0.00 0.00 0.00 66 1011.0
20260509142649 65 47 2.0 3.0 0.00 0.00 0.00 71 1011.4
20260509142146 65 334 7.0 8.0 0.00 0.00 0.00 68 1011.4
20260509141642 64 346 3.0 3.0 0.00 0.00 0.00 70 1011.4
20260509141138 64 32 2.0 3.0 0.00 0.00 0.00 70 1011.6
20260509140636 63 81 2.0 3.0 0.00 0.00 0.00 70 1011.6
20260509140133 63 53 5.0 6.0 0.00 0.00 0.00 70 1011.9
20260509135630 63 69 2.0 3.0 0.00 0.00 0.00 70 1012.0
20260509135128 63 345 2.0 3.0 0.00 0.00 0.00 71 1012.1
20260509134625 62 326 3.0 4.0 0.00 0.00 0.00 71 1012.2
20260509134122 62 51 3.0 4.0 0.00 0.00 0.00 71 1012.5
20260509133620 62 44 2.0 3.0 0.00 0.00 0.00 72 1012.4
20260509133117 62 18 2.0 2.0 0.00 0.00 0.00 72 1012.3
20260509132615 61 36 2.0 2.0 0.00 0.00 0.00 73 1012.5
20260509132113 60 61 3.0 4.0 0.00 0.00 0.00 74 1012.4
20260509131608 60 347 2.0 3.0 0.00 0.00 0.00 76 1012.2
20260509131106 59 39 1.0 1.0 0.00 0.00 0.00 76 1012.4
20260509130601 59 4 2.0 2.0 0.00 0.00 0.00 76 1012.4
20260509130058 59 10 0.0 1.0 0.00 0.00 0.00 77 1012.4
20260509125555 58 359 2.0 2.0 0.00 0.00 0.00 76 1012.3
20260509125051 58 44 1.0 1.0 0.00 0.00 0.00 76 1012.2
20260509124548 58 6 1.0 2.0 0.00 0.00 0.00 76 1012.3
20260509124045 57 329 2.0 2.0 0.00 0.00 0.00 76 1012.3
20260509123543 57 0 0.0 1.0 0.00 0.00 0.00 77 1012.3
20260509123039 57 2 0.0 1.0 0.00 0.00 0.00 77 1012.3
20260509122535 57 358 2.0 2.0 0.00 0.00 0.00 76 1012.2
20260509122033 56 1 1.0 2.0 0.00 0.00 0.00 75 1012.4
20260509121529 57 14 2.0 3.0 0.00 0.00 0.00 75 1012.4
20260509121027 56 347 1.0 2.0 0.00 0.00 0.00 76 1012.6
20260509120525 56 28 1.0 1.0 0.00 0.00 0.00 78 1012.2
20260509120023 55 15 0.0 0.0 0.00 0.00 0.00 81 1012.1
20260509115519 55 50 0.0 1.0 0.00 0.00 0.00 81 1012.3
20260509115017 55 3 0.0 0.0 0.00 0.00 0.00 81 1012.2
20260509114515 55 0 0.0 0.0 0.00 0.00 0.00 82 1012.3
20260509114014 54 359 0.0 0.0 0.00 0.00 0.00 82 1012.5
20260509113512 54 354 1.0 1.0 0.00 0.00 0.00 82 1012.8
20260509113010 54 356 0.0 0.0 0.00 0.00 0.00 81 1012.4
20260509112506 53 356 0.0 1.0 0.00 0.00 0.00 80 1012.5
20260509112002 53 4 0.0 0.0 0.00 0.00 0.00 81 1012.3
20260509111500 53 3 0.0 0.0 0.00 0.00 0.00 82 1012.4
20260509110957 53 3 0.0 0.0 0.00 0.00 0.00 82 1012.3
20260509110453 53 1 0.0 1.0 0.00 0.00 0.00 82 1012.2
20260509105951 53 6 0.0 1.0 0.00 0.00 0.00 83 1012.4
20260509105449 53 356 1.0 1.0 0.00 0.00 0.00 82 1012.3
20260509104946 52 350 1.0 1.0 0.00 0.00 0.00 83 1012.4
20260509104443 52 1 1.0 1.0 0.00 0.00 0.00 85 1012.2
20260509103940 51 6 1.0 1.0 0.00 0.00 0.00 85 1012.5
20260509103438 51 23 0.0 0.0 0.00 0.00 0.00 86 1012.5
20260509102936 51 36 1.0 1.0 0.00 0.00 0.00 86 1012.4
20260509102433 51 17 0.0 0.0 0.00 0.00 0.00 85 1012.4
20260509101928 51 18 0.0 0.0 0.00 0.00 0.00 84 1012.4
20260509101425 51 10 0.0 0.0 0.00 0.00 0.00 83 1012.5
20260509100923 51 9 0.0 0.0 0.00 0.00 0.00 83 1012.4
20260509100420 51 9 0.0 0.0 0.00 0.00 0.00 83 1012.5
20260509095916 51 9 0.0 0.0 0.00 0.00 0.00 83 1012.5
20260509095414 51 57 1.0 1.0 0.00 0.00 0.00 83 1012.5
20260509094910 52 35 0.0 0.0 0.00 0.00 0.00 82 1012.4
20260509094407 52 42 0.0 0.0 0.00 0.00 0.00 82 1012.4
20260509093905 52 31 0.0 0.0 0.00 0.00 0.00 82 1012.5
20260509093402 52 346 0.0 0.0 0.00 0.00 0.00 80 1012.3
20260509092900 53 359 0.0 0.0 0.00 0.00 0.00 76 1012.5
20260509092357 53 358 0.0 0.0 0.00 0.00 0.00 75 1012.4
20260509091856 53 3 1.0 1.0 0.00 0.00 0.00 75 1012.5
20260509091352 53 10 0.0 0.0 0.00 0.00 0.00 75 1012.6
20260509090850 54 8 0.0 1.0 0.00 0.00 0.00 73 1012.5
20260509090347 54 5 1.0 1.0 0.00 0.00 0.00 72 1012.6
20260509085844 54 58 1.0 1.0 0.00 0.00 0.00 71 1012.6
20260509085341 54 33 0.0 1.0 0.00 0.00 0.00 70 1012.6
20260509084838 54 344 1.0 1.0 0.00 0.00 0.00 72 1012.8
20260509084335 54 39 0.0 0.0 0.00 0.00 0.00 73 1012.8
20260509083832 54 18 0.0 0.0 0.00 0.00 0.00 74 1013.0
20260509083329 54 358 0.0 0.0 0.00 0.00 0.00 73 1012.6
20260509082826 54 348 1.0 2.0 0.00 0.00 0.00 71 1012.8
20260509082322 54 11 0.0 0.0 0.00 0.00 0.00 71 1012.9
20260509081820 53 14 0.0 0.0 0.00 0.00 0.00 74 1012.6
20260509081316 54 356 0.0 0.0 0.00 0.00 0.00 75 1012.9
20260509080815 53 4 0.0 1.0 0.00 0.00 0.00 73 1012.8
20260509080312 53 357 0.0 1.0 0.00 0.00 0.00 73 1012.8
20260509075810 53 21 0.0 0.0 0.00 0.00 0.00 75 1012.9
20260509075307 53 356 1.0 1.0 0.00 0.00 0.00 76 1012.8
20260509074804 53 352 1.0 1.0 0.00 0.00 0.00 75 1012.9
20260509074302 53 356 1.0 1.0 0.00 0.00 0.00 76 1012.9
20260509073758 53 359 1.0 1.0 0.00 0.00 0.00 75 1013.0
20260509073254 53 345 1.0 1.0 0.00 0.00 0.00 76 1013.1
20260509072751 54 3 1.0 1.0 0.00 0.00 0.00 74 1013.3
20260509072248 54 354 1.0 1.0 0.00 0.00 0.00 73 1013.3
20260509071744 54 3 1.0 1.0 0.00 0.00 0.00 74 1013.4
20260509071242 54 10 0.0 0.0 0.00 0.00 0.00 74 1013.3
20260509070738 54 4 0.0 1.0 0.00 0.00 0.00 74 1013.1
20260509070235 54 4 1.0 1.0 0.00 0.00 0.00 74 1013.3
20260509065731 54 1 0.0 1.0 0.00 0.00 0.00 73 1013.3
20260509065227 54 60 1.0 1.0 0.00 0.00 0.00 75 1013.3
20260509064724 53 344 2.0 2.0 0.00 0.00 0.00 74 1013.3
20260509064222 53 1 1.0 1.0 0.00 0.00 0.00 77 1013.3
20260509063719 53 20 1.0 1.0 0.00 0.00 0.00 78 1013.6
20260509063215 52 357 1.0 1.0 0.00 0.00 0.00 79 1013.4
20260509062713 52 354 1.0 1.0 0.00 0.00 0.00 79 1013.4
20260509062210 53 17 0.0 0.0 0.00 0.00 0.00 78 1013.7
20260509061707 53 339 1.0 1.0 0.00 0.00 0.00 75 1013.5
20260509061204 52 24 0.0 0.0 0.00 0.00 0.00 77 1013.5
20260509060701 52 17 0.0 0.0 0.00 0.00 0.00 79 1013.7
20260509060157 51 44 0.0 0.0 0.00 0.00 0.00 81 1013.9
20260509055654 51 27 0.0 0.0 0.00 0.00 0.00 81 1013.9
20260509055149 51 12 0.0 0.0 0.00 0.00 0.00 83 1013.9
20260509054646 50 359 0.0 1.0 0.00 0.00 0.00 82 1014.2
20260509054144 50 356 0.0 1.0 0.00 0.00 0.00 83 1013.9
20260509053642 49 350 0.0 0.0 0.00 0.00 0.00 85 1013.9
20260509053138 49 33 0.0 0.0 0.00 0.00 0.00 86 1013.8
20260509052636 48 10 0.0 0.0 0.00 0.00 0.00 86 1013.7
20260509052134 48 16 0.0 0.0 0.00 0.00 0.00 86 1013.8
20260509051631 48 354 1.0 2.0 0.00 0.00 0.00 87 1014.0
20260509051128 48 33 0.0 0.0 0.00 0.00 0.00 87 1014.0
20260509050626 48 35 0.0 0.0 0.00 0.00 0.00 87 1014.0
20260509050122 48 352 0.0 1.0 0.00 0.00 0.00 88 1013.9
20260509045620 48 58 2.0 2.0 0.00 0.00 0.00 89 1013.9
20260509045116 48 17 0.0 0.0 0.00 0.00 0.00 88 1013.8
20260509044613 48 6 0.0 0.0 0.00 0.00 0.00 87 1013.7
20260509044111 48 10 0.0 0.0 0.00 0.00 0.00 86 1013.7
20260509043607 48 9 0.0 0.0 0.00 0.00 0.00 85 1013.8
20260509043102 48 3 0.0 1.0 0.00 0.00 0.00 85 1013.9
20260509042559 49 9 0.0 0.0 0.00 0.00 0.00 85 1013.6
20260509042055 49 12 0.0 0.0 0.00 0.00 0.00 84 1013.6
20260509041552 49 22 0.0 0.0 0.00 0.00 0.00 84 1013.7
20260509041050 49 18 0.0 0.0 0.00 0.00 0.00 85 1013.8
20260509040548 49 18 0.0 0.0 0.00 0.00 0.00 85 1013.7
20260509040044 49 3 0.0 0.0 0.00 0.00 0.00 85 1013.8
20260509035541 49 21 0.0 0.0 0.00 0.00 0.00 86 1013.8
20260509035038 49 27 0.0 0.0 0.00 0.00 0.00 86 1013.8
20260509034536 49 2 0.0 0.0 0.00 0.00 0.00 86 1013.8
20260509034033 49 2 0.0 0.0 0.00 0.00 0.00 86 1013.9
20260509033530 50 3 0.0 0.0 0.00 0.00 0.00 85 1013.7
20260509033027 50 3 0.0 0.0 0.00 0.00 0.00 84 1014.2
20260509032524 50 3 0.0 0.0 0.00 0.00 0.00 83 1013.9
20260509032021 51 3 0.0 0.0 0.00 0.00 0.00 81 1013.8
20260509031519 51 3 0.0 0.0 0.00 0.00 0.00 81 1013.8
20260509031016 51 1 0.0 0.0 0.00 0.00 0.00 81 1014.0
20260509030514 51 350 1.0 1.0 0.00 0.00 0.00 81 1013.9
20260509030010 52 9 1.0 1.0 0.00 0.00 0.00 80 1014.1
20260509025506 52 13 0.0 0.0 0.00 0.00 0.00 79 1014.2
20260509025002 52 11 0.0 0.0 0.00 0.00 0.00 80 1014.1
20260509024458 52 12 0.0 0.0 0.00 0.00 0.00 79 1013.9
20260509023955 52 13 0.0 0.0 0.00 0.00 0.00 78 1014.0
20260509023452 52 12 0.0 0.0 0.00 0.00 0.00 78 1014.3
20260509022949 52 13 0.0 0.0 0.00 0.00 0.00 78 1014.2
20260509022446 52 6 0.0 0.0 0.00 0.00 0.00 77 1014.1
20260509021943 53 6 0.0 0.0 0.00 0.00 0.00 75 1014.0
20260509021440 53 2 1.0 1.0 0.00 0.00 0.00 75 1013.8
20260509020937 53 17 0.0 0.0 0.00 0.00 0.00 75 1014.0
20260509020436 53 18 0.0 0.0 0.00 0.00 0.00 74 1014.1